KJ5HMU-13 Weather Reports


time (UTC)temp
F
wind
direction
speed
knots
gust
knots
rain 1hr
in
rain 24hr
in
rain mn
in
humidity
%
barometer
mb
20260505005032 44 199 0.9 0.9 0.00 0.00 0.00 73 1020.2
20260505004529 44 200 0.9 0.9 0.00 0.00 0.00 74 1019.6
20260505004026 44 200 0.0 0.0 0.00 0.00 0.00 73 1019.5
20260505003523 44 200 0.0 0.0 0.00 0.00 0.00 73 1019.9
20260505003020 44 200 0.0 0.0 0.00 0.00 0.00 70 1019.9
20260505002515 44 200 0.0 0.0 0.00 0.00 0.00 71 1020.0
20260505002015 45 200 0.0 0.0 0.00 0.00 0.00 72 1020.0
20260505001511 45 200 0.0 0.0 0.00 0.00 0.00 74 1020.2
20260505001008 45 200 0.0 0.0 0.00 0.00 0.00 76 1020.3
20260505000506 45 200 0.0 0.0 0.00 0.00 0.00 75 1020.3
20260505000003 45 200 0.0 0.0 0.00 0.00 0.00 73 1020.6
20260504235500 45 203 0.0 0.0 0.00 0.00 0.00 76 1020.6
20260504234956 45 203 0.0 0.0 0.00 0.00 0.00 77 1020.4
20260504234454 45 203 0.0 0.0 0.00 0.00 0.00 78 1020.2
20260504233950 45 203 0.0 0.0 0.00 0.00 0.00 75 1020.7
20260504233446 45 203 0.0 0.0 0.00 0.00 0.00 76 1020.7
20260504232943 45 204 0.0 0.0 0.00 0.00 0.00 76 1020.4
20260504232440 45 203 0.0 0.0 0.00 0.00 0.00 77 1020.6
20260504231937 46 204 0.0 0.9 0.00 0.00 0.00 72 1020.8
20260504231433 47 208 0.0 0.0 0.00 0.00 0.00 73 1020.8
20260504230929 46 209 0.0 0.0 0.00 0.00 0.00 77 1021.2
20260504230426 45 209 0.0 0.0 0.00 0.00 0.00 75 1020.9
20260504225926 44 209 0.0 0.0 0.00 0.00 0.00 79 1021.1
20260504225422 45 209 0.0 0.0 0.00 0.00 0.00 77 1021.2
20260504224919 46 208 0.0 0.0 0.00 0.00 0.00 70 1021.3
20260504224416 47 199 0.0 0.0 0.00 0.00 0.00 60 1021.3
20260504223913 48 199 0.0 0.0 0.00 0.00 0.00 59 1021.1
20260504223408 48 191 0.0 0.0 0.00 0.00 0.00 57 1020.9
20260504222904 49 192 0.0 0.0 0.00 0.00 0.00 55 1020.8
20260504222402 50 200 0.0 0.0 0.00 0.00 0.00 55 1020.8
20260504221900 51 157 0.0 0.0 0.00 0.00 0.00 54 1021.1
20260504221356 51 156 0.0 0.0 0.00 0.00 0.00 53 1021.2
20260504220854 51 162 0.9 0.9 0.00 0.00 0.00 53 1021.3
20260504220350 49 151 1.7 1.7 0.00 0.00 0.00 58 1021.3
20260504215847 48 155 0.9 0.9 0.00 0.00 0.00 60 1021.3
20260504215343 47 200 0.9 0.9 0.00 0.00 0.00 65 1021.5
20260504214840 45 194 0.9 0.9 0.00 0.00 0.00 67 1021.6
20260504214337 45 198 0.0 0.0 0.00 0.00 0.00 69 1021.7
20260504213834 44 176 1.7 2.6 0.00 0.00 0.00 70 1021.7
20260504213329 44 142 0.0 0.9 0.00 0.00 0.00 68 1021.7
20260504212827 45 147 1.7 1.7 0.00 0.00 0.00 66 1021.5
20260504212323 46 156 0.9 0.9 0.00 0.00 0.00 64 1021.5
20260504211821 47 293 0.9 0.9 0.00 0.00 0.00 61 1021.3
20260504211317 49 146 0.0 0.0 0.00 0.00 0.00 57 1021.1
20260504210815 51 167 0.9 1.7 0.00 0.00 0.00 50 1020.8
20260504210312 54 158 3.5 6.1 0.00 0.00 0.00 42 1020.4
20260504205809 56 24 2.6 3.5 0.00 0.00 0.00 34 1020.2
20260504205306 56 130 0.0 0.0 0.00 0.00 0.00 36 1020.2
20260504204804 56 130 0.0 0.0 0.00 0.00 0.00 37 1020.0
20260504204302 58 131 0.9 0.9 0.00 0.00 0.00 34 1019.9
20260504203801 59 110 0.0 0.0 0.00 0.00 0.00 34 1019.9
20260504203258 58 187 0.0 0.0 0.00 0.00 0.00 36 1020.2
20260504202758 57 109 0.0 0.9 0.00 0.00 0.00 37 1020.3
20260504202256 58 157 0.0 0.0 0.00 0.00 0.00 38 1020.2
20260504201753 59 193 0.0 0.0 0.00 0.00 0.00 37 1020.3
20260504201250 58 145 0.9 0.9 0.00 0.00 0.00 37 1020.7
20260504200748 57 169 0.9 0.9 0.00 0.00 0.00 37 1020.7
20260504200243 54 101 0.0 0.0 0.00 0.00 0.00 41 1020.8
20260504195740 51 137 0.0 0.0 0.00 0.00 0.00 46 1020.8
20260504195236 52 200 0.0 0.0 0.00 0.00 0.00 45 1021.1
20260504194733 53 312 0.9 0.9 0.00 0.00 0.00 44 1020.9
20260504194229 54 333 1.7 2.6 0.00 0.00 0.00 43 1021.2
20260504193726 55 262 1.7 1.7 0.00 0.00 0.00 41 1021.2
20260504193223 54 65 0.9 1.7 0.00 0.00 0.00 44 1021.5
20260504192722 53 137 0.0 0.0 0.00 0.00 0.00 47 1021.3
20260504192219 53 109 0.0 0.0 0.00 0.00 0.00 47 1021.6
20260504191718 55 164 3.5 6.1 0.00 0.00 0.00 43 1021.2
20260504191214 56 167 0.9 3.5 0.00 0.00 0.00 43 1021.6
20260504190710 57 150 0.9 0.9 0.00 0.00 0.00 36 1021.3
20260504190206 57 152 2.6 3.5 0.00 0.00 0.00 35 1021.5
20260504185703 56 198 0.0 0.0 0.00 0.00 0.00 37 1021.3
20260504185159 56 172 0.9 0.9 0.00 0.00 0.00 34 1021.7
20260504184655 57 246 1.7 1.7 0.00 0.00 0.00 36 1021.9
20260504184151 53 163 1.7 2.6 0.00 0.00 0.00 39 1021.6
20260504183648 52 189 0.9 0.9 0.00 0.00 0.00 42 1022.4
20260504183145 52 241 1.7 1.7 0.00 0.00 0.00 43 1022.0
20260504182643 52 37 1.7 2.6 0.00 0.00 0.00 43 1022.1
20260504182140 52 359 0.0 0.0 0.00 0.00 0.00 41 1021.9
20260504181637 52 43 0.9 0.9 0.00 0.00 0.00 43 1022.3
20260504181135 53 331 0.9 0.9 0.00 0.00 0.00 43 1022.4
20260504180634 53 300 0.9 0.0 0.00 0.00 0.00 41 1022.0
20260504180132 53 35 0.0 0.0 0.00 0.00 0.00 42 1022.0
20260504175629 53 8 0.0 0.0 0.00 0.00 0.00 40 1022.4
20260504175125 54 288 1.7 2.6 0.00 0.00 0.00 40 1022.4
20260504174624 55 234 0.9 1.7 0.00 0.00 0.00 39 1022.4
20260504174120 55 113 1.7 1.7 0.00 0.00 0.00 39 1022.3
20260504173617 55 261 1.7 1.7 0.00 0.00 0.00 40 1022.4
20260504173115 53 134 0.9 1.7 0.00 0.00 0.00 43 1022.5
20260504172611 53 343 0.0 0.0 0.00 0.00 0.00 46 1022.4
20260504172108 54 31 0.9 0.9 0.00 0.00 0.00 44 1022.8
20260504171604 53 13 0.0 0.9 0.00 0.00 0.00 46 1022.5
20260504171101 53 16 1.7 2.6 0.00 0.00 0.00 45 1022.8
20260504170557 52 8 2.6 3.5 0.00 0.00 0.00 46 1022.8
20260504150941 48 23 0.0 0.0 0.00 0.00 0.00 45 1023.4
20260504150438 48 28 0.9 0.9 0.00 0.00 0.00 47 1023.4
20260504140904 37 11 0.0 0.0 0.00 0.00 0.00 64 1023.6
20260504140400 37 11 0.0 0.0 0.00 0.00 0.00 64 1023.6
20260504130325 33 10 0.0 0.0 0.00 0.00 0.00 65 1023.6
20260504120248 28 10 0.0 0.0 0.00 0.00 0.00 74 1023.0
20260504110716 30 10 0.0 0.0 0.00 0.00 0.00 68 1023.0
20260504110212 30 10 0.0 0.0 0.00 0.00 0.00 69 1022.9
20260504100136 33 10 0.0 0.0 0.00 0.00 0.00 61 1022.8
20260504081529 33 10 0.0 0.0 0.00 0.00 0.00 63 1023.4
20260504081025 33 10 0.0 0.0 0.00 0.00 0.00 63 1023.4
20260504080522 33 10 0.0 0.0 0.00 0.00 0.00 63 1023.6
20260504050334 39 10 0.0 0.0 0.00 0.00 0.00 54 1024.6
20260504045831 40 10 0.0 0.0 0.00 0.00 0.00 54 1024.7
20260504045326 39 10 0.0 0.0 0.00 0.00 0.00 54 1024.6
20260504044823 40 10 0.0 0.0 0.00 0.00 0.00 54 1024.9
20260504044321 40 10 0.0 0.0 0.00 0.00 0.00 53 1024.7
20260504043818 41 10 0.0 0.0 0.00 0.00 0.00 52 1024.7
20260504043315 41 10 0.0 0.0 0.00 0.00 0.00 51 1024.5
20260504042812 42 10 0.0 0.0 0.00 0.00 0.00 51 1024.9
20260504042308 42 10 0.0 0.0 0.00 0.00 0.00 51 1025.3
20260504041805 41 10 0.0 0.0 0.00 0.00 0.00 51 1025.0
20260504041301 41 10 0.0 0.0 0.00 0.00 0.00 51 1025.0
20260504040757 41 10 0.0 0.0 0.00 0.00 0.00 51 1024.9
20260504040255 42 10 0.0 0.0 0.00 0.00 0.00 50 1024.7
20260504035750 43 10 0.0 0.0 0.00 0.00 0.00 50 1025.0
20260504035248 43 10 0.0 0.0 0.00 0.00 0.00 48 1025.0
20260504034745 42 10 0.9 0.9 0.00 0.00 0.00 49 1024.9
20260504034242 42 10 0.0 0.0 0.00 0.00 0.00 50 1024.7
20260504033740 42 10 0.0 0.0 0.00 0.00 0.00 50 1025.0
20260504033237 42 10 0.0 0.0 0.00 0.00 0.00 51 1025.0
20260504032734 43 10 0.0 0.0 0.00 0.00 0.00 50 1025.0
20260504032231 44 10 0.0 0.0 0.00 0.00 0.00 49 1025.1
20260504031728 44 10 0.0 0.0 0.00 0.00 0.00 48 1024.9
20260504031226 44 10 0.0 0.0 0.00 0.00 0.00 48 1024.7
20260504030721 45 11 0.0 0.0 0.00 0.00 0.00 48 1025.0
20260504030219 45 10 0.0 0.0 0.00 0.00 0.00 47 1024.9
20260504025715 45 10 0.0 0.0 0.00 0.00 0.00 48 1024.7
20260504025212 45 10 0.0 0.0 0.00 0.00 0.00 48 1024.7
20260504024709 45 10 0.0 0.0 0.00 0.00 0.00 48 1024.6
20260504024205 46 10 0.0 0.0 0.00 0.00 0.00 48 1024.6
20260504023702 46 10 0.0 0.0 0.00 0.00 0.00 47 1024.7
20260504023158 46 10 0.0 0.0 0.00 0.00 0.00 47 1024.9
20260504022654 46 10 0.0 0.0 0.00 0.00 0.00 47 1025.0
20260504022150 46 10 0.0 0.0 0.00 0.00 0.00 46 1024.9
20260504021648 46 10 0.0 0.0 0.00 0.00 0.00 46 1024.9
20260504021145 46 10 0.0 0.0 0.00 0.00 0.00 40 1024.5
20260504020642 46 16 0.0 0.0 0.00 0.00 0.00 44 1024.6
20260504020138 46 15 0.0 0.0 0.00 0.00 0.00 46 1024.7
20260504015635 47 15 0.0 0.0 0.00 0.00 0.00 44 1024.7
20260504015131 47 15 0.0 0.0 0.00 0.00 0.00 42 1024.5
20260504014627 47 15 0.0 0.0 0.00 0.00 0.00 41 1024.7
20260504014124 48 12 0.0 0.0 0.00 0.00 0.00 42 1024.5
20260504013621 48 12 0.0 0.0 0.00 0.00 0.00 42 1024.6
20260504013119 49 12 0.0 0.0 0.00 0.00 0.00 41 1024.7
20260504012616 49 12 0.0 0.0 0.00 0.00 0.00 40 1024.6
20260504012114 50 12 0.0 0.0 0.00 0.00 0.00 40 1024.9
20260504011610 50 12 0.0 0.0 0.00 0.00 0.00 39 1024.9
20260504011107 50 12 0.0 0.0 0.00 0.00 0.00 39 1024.9
20260504010602 51 12 0.0 0.0 0.00 0.00 0.00 40 1024.9
20260504010058 51 12 0.0 0.0 0.00 0.00 0.00 38 1024.9
20260504005555 51 12 0.0 0.0 0.00 0.00 0.00 37 1024.7